Location: Newark
(44.6303°N, 123.0961°W)
Time: 15:24:59
(UTC+00:00)

Envisat - Pass Details

Date: 27 January 2020
Orbit: 764 x 766 km, 98.1° (Epoch: 17 February)

Event Time Altitude Azimuth Distance (km) Brightness Sun altitude
Rises 14:57:39 0° 13° (NNE) 3,242 6.2 -7.3°
Reaches altitude 10° 14:59:58 10° 14° (NNE) 2,311 5.4 -6.9°
Maximum altitude 15:05:04 86° 104° (ESE) 773 3.1 -6.1°
Drops below altitude 10° 15:10:08 10° 193° (SSW) 2,294 5.6 -5.2°
Sets 15:12:26 0° 194° (SSW) 3,215 6.3 -4.8°
